TimeEST,TemperatureF,Dew PointF,Humidity,Sea Level PressureIn,VisibilityMPH,Wind Direction,Wind SpeedMPH,Gust SpeedMPH,PrecipitationIn,Events,Conditions,WindDirDegrees,DateUTC
12:03 AM,30.2,30.2,100,29.76,1.2,Calm,Calm,-,N/A,,Overcast,0,2013-02-14 05:03:00
12:16 AM,32.0,32.0,100,29.76,1.8,Calm,Calm,-,N/A,,Overcast,0,2013-02-14 05:16:00
12:53 AM,32.0,32.0,100,29.78,1.8,Calm,Calm,-,N/A,,Overcast,0,2013-02-14 05:53:00
1:05 AM,32.0,30.2,93,29.78,2.0,Calm,Calm,-,N/A,,Overcast,0,2013-02-14 06:05:00
1:16 AM,32.0,30.2,93,29.79,2.5,Calm,Calm,-,N/A,,Overcast,0,2013-02-14 06:16:00
1:53 AM,32.0,30.9,96,29.81,2.5,Calm,Calm,-,N/A,,Overcast,0,2013-02-14 06:53:00
2:14 AM,32.0,30.2,93,29.81,1.5,Calm,Calm,-,N/A,,Overcast,0,2013-02-14 07:14:00
2:25 AM,32.0,30.2,93,29.81,3.0,West,3.5,-,N/A,,Overcast,260,2013-02-14 07:25:00
2:40 AM,30.2,30.2,100,29.82,2.0,Calm,Calm,-,N/A,,Overcast,0,2013-02-14 07:40:00
2:53 AM,30.9,30.0,96,29.83,2.5,Calm,Calm,-,N/A,,Overcast,0,2013-02-14 07:53:00
3:13 AM,28.4,28.4,100,29.82,3.0,Calm,Calm,-,N/A,,Overcast,0,2013-02-14 08:13:00
3:24 AM,26.6,24.8,93,29.82,2.0,Calm,Calm,-,N/A,,Mostly Cloudy,0,2013-02-14 08:24:00
3:29 AM,26.6,24.8,93,29.83,1.5,Calm,Calm,-,N/A,,Scattered Clouds,0,2013-02-14 08:29:00
3:37 AM,28.4,24.8,86,29.83,0.8,Calm,Calm,-,N/A,,Partly Cloudy,0,2013-02-14 08:37:00
3:53 AM,26.1,25.0,96,29.85,0.2,Calm,Calm,-,N/A,Fog,Light Freezing Fog,0,2013-02-14 08:53:00
4:53 AM,24.1,23.0,96,29.89,0.2,Calm,Calm,-,N/A,Fog,Light Freezing Fog,0,2013-02-14 09:53:00
5:15 AM,21.2,19.4,93,29.88,1.5,NW,4.6,-,N/A,,Scattered Clouds,310,2013-02-14 10:15:00
5:22 AM,24.8,23.0,93,29.88,2.5,WNW,3.5,-,N/A,,Partly Cloudy,300,2013-02-14 10:22:00
5:29 AM,19.4,19.4,100,29.89,1.0,SSE,4.6,-,N/A,,Mist,160,2013-02-14 10:29:00
5:36 AM,21.2,19.4,93,29.89,0.8,Variable,3.5,-,N/A,,Mist,0,2013-02-14 10:36:00
5:40 AM,23.0,19.4,86,29.89,1.2,Calm,Calm,-,N/A,,Partly Cloudy,0,2013-02-14 10:40:00
5:53 AM,23.0,23.0,100,29.91,1.5,Calm,Calm,-,N/A,,Mostly Cloudy,0,2013-02-14 10:53:00
6:03 AM,21.2,21.2,100,29.90,2.5,Calm,Calm,-,N/A,,Mostly Cloudy,0,2013-02-14 11:03:00
6:16 AM,23.0,21.2,93,29.91,3.0,Calm,Calm,-,N/A,,Overcast,0,2013-02-14 11:16:00
6:53 AM,26.1,24.1,92,29.95,4.0,Calm,Calm,-,N/A,,Overcast,0,2013-02-14 11:53:00
7:53 AM,27.0,25.0,92,29.99,4.0,NNW,3.5,-,N/A,,Overcast,340,2013-02-14 12:53:00
8:15 AM,26.6,26.6,100,29.98,4.0,Calm,Calm,-,N/A,,Scattered Clouds,0,2013-02-14 13:15:00
8:27 AM,28.4,26.6,93,29.98,5.0,NW,3.5,-,N/A,,Mostly Cloudy,320,2013-02-14 13:27:00
8:51 AM,24.8,24.8,100,29.99,4.0,Calm,Calm,-,N/A,,Scattered Clouds,0,2013-02-14 13:51:00
8:53 AM,26.1,26.1,100,30.00,5.0,Calm,Calm,-,N/A,,Partly Cloudy,0,2013-02-14 13:53:00
9:53 AM,33.1,26.1,75,30.00,8.0,Calm,Calm,-,N/A,,Clear,0,2013-02-14 14:53:00
10:53 AM,34.0,26.1,73,30.00,9.0,Calm,Calm,-,N/A,,Scattered Clouds,0,2013-02-14 15:53:00
11:53 AM,35.1,24.1,64,29.99,10.0,Calm,Calm,-,N/A,,Clear,0,2013-02-14 16:53:00
12:53 PM,39.0,26.1,60,29.97,10.0,Calm,Calm,-,N/A,,Clear,0,2013-02-14 17:53:00
1:53 PM,39.9,28.0,63,29.96,9.0,SE,4.6,-,N/A,,Clear,140,2013-02-14 18:53:00
2:53 PM,42.1,28.0,58,29.95,8.0,SSW,5.8,-,N/A,,Scattered Clouds,200,2013-02-14 19:53:00
3:53 PM,42.1,28.0,58,29.95,8.0,Calm,Calm,-,N/A,,Clear,0,2013-02-14 20:53:00
4:53 PM,42.1,27.0,55,29.95,9.0,SSW,3.5,-,N/A,,Clear,200,2013-02-14 21:53:00
5:53 PM,39.9,28.0,63,29.95,9.0,South,5.8,-,N/A,,Mostly Cloudy,180,2013-02-14 22:53:00
6:53 PM,39.0,28.0,65,29.94,9.0,South,5.8,-,N/A,,Scattered Clouds,190,2013-02-14 23:53:00
7:53 PM,39.0,28.0,65,29.97,8.0,South,3.5,-,N/A,,Overcast,180,2013-02-15 00:53:00
8:53 PM,37.9,28.0,68,29.97,8.0,SW,4.6,-,N/A,,Clear,220,2013-02-15 01:53:00
9:53 PM,37.0,28.0,70,29.96,8.0,South,3.5,-,N/A,,Overcast,170,2013-02-15 02:53:00
10:53 PM,37.0,28.9,73,29.95,8.0,Calm,Calm,-,N/A,,Overcast,0,2013-02-15 03:53:00
11:53 PM,37.0,28.0,70,29.94,9.0,Calm,Calm,-,N/A,,Mostly Cloudy,0,2013-02-15 04:53:00